Location: Arthez
(43.0833°N, 0.2500°W)
Time: 22:35:36
(UTC+00:00)

deb Kosmos-970 - Pass Details

Date: 19 August 2022
Orbit: 900 x 1112 km, 65.8° (Epoch: 28 September)

Event Time Altitude Azimuth Distance (km) Brightness Sun altitude
Rises 19:46:47 0° 313° (NW) 3,938 ? -9.1°
Reaches altitude 10° 19:52:50 10° 352° (N) 2,987 ? -10.1°
Maximum altitude 19:54:01 10° 2° (N) 2,954 ? -10.3°
Drops below altitude 10° 19:55:12 10° 12° (NNE) 2,982 ? -10.5°
Sets 20:01:12 0° 51° (NE) 3,913 ? -11.5°
